User: anonymous   Login
Location: Wheeling
(40.0640°N, 80.7210°W)
Time: 14:49:39
(UTC-04:00)
Language:

CUTE 1.7 + AOD 2 - Orbit

View from above orbital plane
View from above orbital plane
View from above satellite
View from above satellite

Ground track
Ground track

The orbit data is extracted from the following two-line orbital elements,

1 32785U 08021C   21294.15068669  .00000620  00000-0  71775-4 0  9994
2 32785  97.6265 268.2168 0011776 311.8459  48.1752 14.88848115730946
Epoch (UTC): 21 October 2021 03:36:59
Eccentricity: 0.0011776
inclination: 97.6265°
perigee height: 593 km
apogee height: 610 km
right ascension of ascending node: 268.2168°
argument of perigee: 311.8459°
revolutions per day: 14.88848115
mean anomaly at epoch: 48.1752°
orbit number at epoch: 73094

The dashed part of the orbit path shows where the satellite is in the earth's shadow,  

DLR